This demonstration page uses our WeatherBlox Daily Observations layout. Learn more.

Left ArrowRight Arrow

Hourly Observations for December 25, 2018

Temp ( °F °C ) Dew Point ( °F °C ) Humidity (%) Winds ( mph kmh ) Pressure ( in mb ) Visibility ( mi km ) Precip ( " mm )
12:29 am 00:29 Clear with Mist and Fog 25 -4 23 -5 93 93 NW 3 6 30.15 1021 2 3 0.00 0.00
12:37 am 00:37 Mostly Clear with Mist and Fog 25 -4 21 -6 86 86 Calm 30.15 1021 1 2 0.00 0.00
12:42 am 00:42 Partly Cloudy with Mist and Fog 23 -5 21 -6 93 93 Calm 30.15 1021 4 6 0.00 0.00
12:57 am 00:57 Mostly Clear 23 -5 21 -6.1 92 92 Calm 30.07 1018 10 16 0.00 0.00
1:26 am 01:26 Clear with Mist and Fog 21 -6 21 -6 100 100 Calm 30.18 1022 2 2 0.00 0.00
1:28 am 01:28 Mostly Cloudy with Mist and Fog 21 -6 21 -6 100 100 Calm 30.18 1022 1 2 0.00 0.00
1:57 am 01:57 Partly Cloudy with Scattered Snow Showers 23 -5 22 -5.6 96 96 Calm 30.09 1019 9 14 0.00 0.03
2:57 am 02:57 Clear 23 -5 22 -5.6 96 96 W 5 7 30.12 1020 8 13 0.00 0.03
3:57 am 03:57 Clear 20 -6.7 19 -7.2 96 96 SSE 3 6 30.12 1020 9 14 0.00 0.00
4:09 am 04:09 Mostly Clear 21 -6 19 -7 93 93 S 5 7 30.21 1023 9 14 0.00 0.00
4:25 am 04:25 Mostly Cloudy with Mist and Fog 19 -7 19 -7 100 100 SE 6 9 30.21 1023 2 3 0.00 0.00
4:33 am 04:33 Partly Cloudy with Mist and Fog 19 -7 19 -7 100 100 SSW 3 6 30.21 1023 2 3 0.00 0.00
4:42 am 04:42 Partly Cloudy 19 -7 18 -8 93 93 S 5 7 30.21 1023 7 11 0.00 0.00
4:51 am 04:51 Mostly Cloudy 19 -7 19 -7 100 100 WSW 3 6 30.21 1023 9 14 0.00 0.00
4:57 am 04:57 Partly Cloudy 20 -6.7 19 -7.2 96 96 Calm 30.12 1020 9 14 0.00 0.00
5:57 am 05:57 Clear 21 -6.1 19 -7.2 92 92 SW 3 6 30.13 1020 10 16 0.00 0.00
6:55 am 06:55 Partly Cloudy 19 -7 18 -8 93 93 WNW 3 6 30.24 1024 10 16 0.00 0.00
6:57 am 06:57 Partly Cloudy 19 -7.2 17 -8.3 92 92 Calm 30.16 1021 10 16 0.00 0.00
7:57 am 07:57 Clear 19 -7.2 17 -8.3 92 92 Calm 30.18 1022 10 16 0.00 0.00
8:57 am 08:57 Sunny 21 -6.1 20 -6.7 96 96 Calm 30.21 1023 10 16 0.00 0.00
9:57 am 09:57 Sunny 31 -0.6 28 -2.2 89 89 Calm 30.21 1023 10 16 0.00 0.00
10:57 am 10:57 Sunny 34 1.1 31 -0.6 89 89 ESE 5 7 30.19 1022 10 16 0.00 0.00
11:57 am 11:57 Sunny 39 3.9 34 1.1 82 82 S 7 11 30.18 1022 10 16 0.00 0.00
12:57 pm 12:57 Sunny 40 4.4 34 1.1 79 79 SSW 8 13 30.17 1022 10 16 0.00 0.00
1:57 pm 13:57 Sunny 41 5 34 1.1 76 76 SSW 9 15 30.16 1022 10 16 0.00 0.00
2:57 pm 14:57 Mostly Sunny 40 4.4 35 1.7 83 83 SSE 6 9 30.17 1022 10 16 0.00 0.00
3:57 pm 15:57 Sunny 40 4.4 35 1.7 83 83 E 8 13 30.18 1022 10 16 0.00 0.00
4:57 pm 16:57 Sunny 34 1.1 32 0 92 92 E 8 13 30.20 1023 10 16 0.00 0.00
5:57 pm 17:57 Clear with Mist and Fog 32 0 30 -1.1 92 92 E 9 15 30.20 1023 6 10 0.00 0.00
6:57 pm 18:57 Clear with Mist and Fog 30 -1.1 30 -1.1 100 100 E 10 17 30.22 1024 6 10 0.00 0.00
7:29 pm 19:29 Partly Cloudy with Mist and Fog 30 -1 28 -2 93 93 E 9 15 30.27 1025 5 8 0.00 0.00
7:34 pm 19:34 Mostly Cloudy with Mist and Fog 30 -1 28 -2 93 93 E 13 20 30.27 1025 3 5 0.00 0.00
7:36 pm 19:36 Mostly Cloudy with Mist and Fog 30 -1 30 -1 100 100 E 13 20 30.27 1025 2 3 0.00 0.00
7:39 pm 19:39 Mostly Cloudy with Mist and Fog 30 -1 30 -1 100 100 E 14 22 30.27 1025 1 1 0.00 0.00
7:48 pm 19:48 Cloudy with Freezing Fog 30 -1 28 -2 93 93 E 12 19 30.27 1025 1 1 0.00 0.00
7:57 pm 19:57 Cloudy with Freezing Fog 30 -1.1 29 -1.7 96 96 E 12 19 30.23 1024 0 0 0.00 0.00
8:44 pm 20:44 Cloudy with Freezing Fog 30 -1 30 -1 100 100 E 13 20 30.27 1025 1 1 0.00 0.00
8:57 pm 20:57 Cloudy with Freezing Fog 31 -0.6 30 -1.1 96 96 E 13 20 30.23 1024 1 1 0.00 0.00
9:57 pm 21:57 Cloudy with Freezing Fog 31 -0.6 30 -1.1 96 96 E 10 17 30.21 1023 1 1 0.00 0.00
10:46 pm 22:46 Cloudy with Freezing Fog 30 -1 30 -1 100 100 E 9 15 30.27 1025 0 0 0.00 0.00
10:57 pm 22:57 Cloudy with Freezing Fog 31 -0.6 31 -0.6 100 100 E 8 13 30.21 1023 0 0 0.00 0.00
11:57 pm 23:57 Cloudy with Fog 32 0 32 0 100 100 E 10 17 30.19 1022 1 1 0.00 0.00

Powered by AerisWeather